Terminal Aerodrome Forecast
Issued by NWS Honolulu, HI

Home | Current Version | Previous Version | Text Only | Print | Product List | Glossary On
Versions: 1 2 3 4 5 6 7 8 9 10 11 12 13 14 15 16 17 18 19 20 21 22 23 24 25 26
000
FTPA31 PHFO 222341
TAFHNL
TAF
PHNL 222341Z 2300/2406 05013G21KT P6SM FEW030 SCT045
     FM230600 03007KT P6SM FEW030 SCT045
     FM232000 05013KT P6SM FEW030 SCT045=

USA.gov is the U.S. government's official web portal to all federal, state and local government web resources and services.